Location: Saint-Palais-sur-Mer
(45.6429°N, 1.0859°W)
Time: 09:10:08
(UTC+01:00)

Transit 4A - All Passes

Search period start: 15 February 2026 00:00
Search period end: 25 February 2026 00:00
Orbit: 865 x 976 km, 66.8° (Epoch: 13 February)

Date Brightness Start Highest point End Pass type
(mag) Time Alt. Az. Time Alt. Az. Time Alt. Az.
15 Feb - 04:31:10 10° SSE 04:36:08 30° ESE 04:41:14 10° NE visible
15 Feb - 06:16:26 10° SW 06:22:09 52° NW 06:28:04 10° NNE visible
15 Feb - 08:06:26 10° WNW 08:09:58 16° NNW 08:13:34 10° N daylight
15 Feb - 11:44:33 10° N 11:48:27 17° NNE 11:52:24 10° ENE daylight
15 Feb - 13:30:05 10° NNW 13:36:12 55° NE 13:42:25 10° SE daylight
15 Feb - 15:16:52 10° NW 15:22:16 31° WSW 15:27:44 10° S daylight
16 Feb - 04:39:13 10° S 04:44:42 43° ESE 04:50:19 10° NE visible
16 Feb - 06:25:36 10° WSW 06:31:05 39° NW 06:36:43 10° NNE visible
16 Feb - 08:16:29 10° NW 08:19:15 13° NNW 08:22:04 10° N daylight
16 Feb - 11:53:05 10° NNW 11:57:40 21° NE 12:02:17 10° E daylight
16 Feb - 13:38:47 10° NNW 13:45:03 75° NE 13:51:24 10° SE daylight
16 Feb - 15:26:10 10° WNW 15:30:46 22° WSW 15:35:26 10° SSW daylight
17 Feb - 04:47:34 10° SSW 04:53:19 63° ESE 04:59:15 10° NE visible
17 Feb - 06:34:58 10° WSW 06:40:05 29° NW 06:45:20 10° NNE visible
17 Feb - 08:26:45 10° NNW 08:28:37 11° NNW 08:30:29 10° N daylight
17 Feb - 10:16:40 10° N 10:18:06 11° NNE 10:19:32 10° NNE daylight
17 Feb - 12:01:39 10° NNW 12:06:47 26° NE 12:12:00 10° E daylight
17 Feb - 13:47:33 10° NW 13:53:49 81° WSW 14:00:11 10° SSE daylight
17 Feb - 15:35:57 10° WNW 15:39:13 15° WSW 15:42:29 10° SW daylight
18 Feb - 03:13:29 10° SE 03:16:39 15° ESE 03:19:51 10° ENE visible
18 Feb - 04:56:10 10° SSW 05:02:01 88° ESE 05:08:06 10° NNE visible
18 Feb - 06:44:32 10° W 06:49:10 23° NW 06:53:56 10° NNE visible
18 Feb - 08:37:26 10° NNW 08:38:01 10° N 08:38:36 10° N daylight
18 Feb - 10:25:01 10° N 10:27:29 12° NNE 10:29:58 10° NE daylight
18 Feb - 12:10:15 10° NNW 12:15:52 34° NE 12:21:32 10° ESE daylight
18 Feb - 13:56:24 10° NW 14:02:32 58° WSW 14:08:44 10° SSE daylight
19 Feb - 03:20:39 10° SSE 03:25:05 23° ESE 03:29:34 10° ENE visible
19 Feb - 05:04:58 10° SW 05:10:49 67° NW 05:16:51 10° NNE visible
19 Feb - 06:54:16 10° WNW 06:58:21 19° NNW 07:02:30 10° NNE visible
19 Feb - 10:33:28 10° N 10:36:49 15° NNE 10:40:11 10° ENE daylight
19 Feb - 12:18:53 10° NNW 12:24:50 44° NE 12:30:52 10° ESE daylight
19 Feb - 14:05:21 10° NW 14:11:09 41° WSW 14:17:01 10° S daylight
20 Feb - 03:28:26 10° S 03:33:34 33° ESE 03:38:50 10° NE visible
20 Feb - 05:14:00 10° SW 05:19:41 48° NW 05:25:33 10° NNE visible
20 Feb - 07:04:12 10° WNW 07:07:36 15° NNW 07:11:02 10° N visible
20 Feb - 10:41:59 10° NNW 10:46:05 18° NNE 10:50:13 10° ENE daylight
20 Feb - 12:27:33 10° NNW 12:33:44 59° NE 12:40:01 10° SE daylight
20 Feb - 14:14:28 10° NW 14:19:43 29° WSW 14:25:02 10° SSW daylight
21 Feb - 03:36:34 10° S 03:42:09 48° ESE 03:47:53 10° NE visible
21 Feb - 05:23:13 10° WSW 05:28:38 36° NW 05:34:12 10° NNE visible
21 Feb - 07:14:18 10° NW 07:16:54 13° NNW 07:19:31 10° N visible
21 Feb - 09:06:08 10° N 09:06:20 10° N 09:06:33 10° N daylight
21 Feb - 10:50:32 10° NNW 10:55:16 22° NE 11:00:04 10° E daylight
21 Feb - 12:36:17 10° NNW 12:42:34 81° ENE 12:48:56 10° SE daylight
21 Feb - 14:23:51 10° WNW 14:28:13 20° WSW 14:32:36 10° SSW daylight
22 Feb - 02:04:35 10° ESE 02:05:40 10° E 02:06:46 10° E visible
22 Feb - 03:45:00 10° SSW 03:50:48 69° ESE 03:56:48 10° NE visible
22 Feb - 05:32:38 10° W 05:37:39 28° NW 05:42:49 10° NNE visible
22 Feb - 07:24:36 10° NNW 07:26:16 11° NNW 07:27:57 10° N visible
22 Feb - 09:13:59 10° N 09:15:45 11° NNE 09:17:32 10° NNE daylight
22 Feb - 10:59:06 10° NNW 11:04:23 28° NE 11:09:44 10° E daylight
22 Feb - 12:45:03 10° NW 12:51:19 75° WSW 12:57:40 10° SSE daylight
22 Feb - 14:33:53 10° WNW 14:36:37 13° W 14:39:25 10° SW daylight
23 Feb - 02:10:29 10° SE 02:14:03 17° ESE 02:17:39 10° ENE visible
23 Feb - 03:53:38 10° SSW 03:59:31 85° WNW 04:05:36 10° NNE visible
23 Feb - 05:42:13 10° W 05:46:45 22° NW 05:51:24 10° NNE visible
23 Feb - 09:22:24 10° N 09:25:08 13° NNE 09:27:52 10° NE daylight
23 Feb - 11:07:43 10° NNW 11:13:25 36° NE 11:19:13 10° ESE daylight
23 Feb - 12:53:56 10° NW 13:00:00 53° WSW 13:06:09 10° S daylight
24 Feb - 02:17:51 10° SSE 02:22:30 25° ESE 02:27:14 10° NE visible
24 Feb - 04:02:30 10° SW 04:08:19 62° NW 04:14:21 10° NNE visible
24 Feb - 05:52:01 10° WNW 05:55:57 18° NNW 05:59:58 10° NNE visible
24 Feb - 09:30:54 10° N 09:34:26 15° NNE 09:38:02 10° ENE daylight
24 Feb - 11:16:21 10° NNW 11:22:23 47° NE 11:28:30 10° ESE daylight
24 Feb - 13:02:55 10° NW 13:08:37 37° WSW 13:14:23 10° S daylight
